Regional Weather Roundup
Issued by NWS Boston, MA

Home | Current Version | Previous Version | Text Only | Print | Product List | Glossary On
Versions: 1 2 3 4 5 6 7 8 9 10 11 12 13 14 15 16 17 18 19 20 21 22 23 24 25 26 27 28
000
ASUS41 KBOX 300310
RWRBOX

REGIONAL WEATHER ROUNDUP
NATIONAL WEATHER SERVICE TAUNTON MA
1100 PM EDT THU SEP 29 2016

NOTE:  "FAIR" INDICATES FEW OR NO CLOUDS BELOW 12,000 FEET WITH NO
SIGNIFICANT WEATHER AND/OR OBSTRUCTIONS TO VISIBILITY.

MAZALL-300400-
EASTERN MASSACHUSETTS

CITY           SKY/WX    TMP DP  RH WIND       PRES   REMARKS
BOSTON         MOCLDY    58  50  75 NE20      30.51R
BEVERLY        PTCLDY    50  48  93 CALM      30.51R
LAWRENCE       CLEAR     48  46  93 CALM      30.54S
BEDFORD        PTCLDY    48  44  86 NE3       30.50S
BLUE HILL        N/A     54  48  80 E16G23    30.48S
NORWOOD        MOCLDY    56  49  77 E8        30.49S
MARSHFIELD     MOCLDY    59  50  72 E15G25    30.49S
PLYMOUTH       CLOUDY    57  48  72 NE10G21   30.49R
TAUNTON        MOCLDY    56  49  77 NE6       30.47S
NEW BEDFORD    CLOUDY    58  50  75 NE10      30.45F
$$

MAZALL-300400-
CAPE COD AND THE ISLANDS

CITY           SKY/WX    TMP DP  RH WIND       PRES   REMARKS
FALMOUTH       CLOUDY    57  50  77 E15G22    30.47S
HYANNIS        CLOUDY    58  50  75 NE13G18   30.44F
CHATHAM        CLOUDY    58  51  78 E15G22    30.47F
PROVINCETOWN   PTCLDY    58  48  69 E16       30.49R
NANTUCKET      CLOUDY    60  53  77 NE16      30.43F
MARTHAS VNYRD  CLOUDY    60  52  74 E18G28    30.44F
$$

MAZALL-300400-
CENTRAL AND WESTERN MASSACHUSETTS

CITY           SKY/WX    TMP DP  RH WIND       PRES   REMARKS
WORCESTER      CLOUDY    49  46  90 NE10      30.49S
FITCHBURG      CLEAR     48  44  86 NW5       30.53R
ORANGE         PTCLDY    49  47  93 N3        30.51S
SPRINGFIELD    MOCLDY    51  46  83 NE7       30.48R
WESTFIELD      CLOUDY    53  46  77 NE7       30.49S
NORTH ADAMS    PTCLDY    54  41  61 E14G21    30.47R
PITTSFIELD     CLOUDY    52  40  63 E7        30.46R
$$

RIZALL-300400-
RHODE ISLAND

CITY           SKY/WX    TMP DP  RH WIND       PRES   REMARKS
PROVIDENCE     CLOUDY    56  49  77 NE13      30.46F
NEWPORT        CLOUDY    56  51  84 NE12      30.45S
BLOCK ISLAND   CLOUDY    60  53  77 NE22G30   30.43S
SMITHFIELD     PTCLDY    53  49  86 NE7       30.48S
WESTERLY       MOCLDY    58  48  69 NE10      30.44F
$$

CTZALL-300400-
CONNECTICUT

CITY           SKY/WX    TMP DP  RH WIND       PRES   REMARKS
BRADLEY INTL   CLOUDY    53  46  77 NE7       30.48S
HARTFORD       CLOUDY    55  47  74 N9        30.47S
BRIDGEPORT     CLOUDY    58  48  69 NE16      30.42S
DANBURY        CLOUDY    53  46  77 E14       30.44R
GROTON         CLOUDY    58  49  72 NE9       30.42F
NEW HAVEN      CLOUDY    56  47  71 NE16      30.43F
CHESTER        MOCLDY    54  48  82 E9        30.44S
MERIDEN        CLOUDY    56  46  69 N7        30.45S
WILLIMANTIC    CLOUDY    56  49  77 NE9       30.47S
OXFORD           N/A     54  43  66 E12G20    30.45R
$$

MEZ002-015-021-024-NHZ003-005-008-011-012-014-VTZ005-008-300400-
NORTHERN NEW ENGLAND

CITY           SKY/WX    TMP DP  RH WIND       PRES   REMARKS
PORTLAND ME    PTCLDY    47  43  86 N6        30.55S
BANGOR ME      CLOUDY    43  39  86 NW5       30.57S
CONCORD NH     CLOUDY    48  43  82 CALM      30.54R
MANCHESTER NH  PTCLDY    51  46  83 N5        30.52R
NASHUA NH      PTCLDY    48  45  89 W3        30.53S
PORTSMOUTH NH  MOCLDY    51  47  86 N5        30.52R
JAFFREY NH     CLEAR     49  45  86 CALM      30.52S
KEENE NH       PTCLDY    46  45  96 CALM      30.53R
BURLINGTON VT  CLOUDY    59  46  62 SE8       30.47S
MT. WASHINGTON CLOUDY    46  -8  10 SE9         N/A
$$

NYZ052-076-300400-
EASTERN NEW YORK

CITY           SKY/WX    TMP DP  RH WIND       PRES   REMARKS
ALBANY         CLOUDY    56  44  64 NE5       30.46R
NEW YORK CITY  LGT RAIN  64  54  69 NE25G33   30.36F
$$

ANZALL-300400-
MARINE OBSERVATIONS

STATION/POSITION TIME  TEMP    WIND        PRES    VSBY  WAVE
                       AIR SEA DIR/SP/G                  HT/PER
                 (UTC) (F)     (DEG/KT/KT) (MB)    (MI)  (FT/S)
BOSTON BUOY      0250   60 61   60/ 19/ 23 1032.1S         8/ 8
BUZZARDS BAY     0200   59      60/ 26/ 30 1030.8F
NANTUCKET SOUND  0250   60 65   60/ 21/ 25 1030.1F         4/ 4
MASS BAY-STELLWA 0204   59 60   60/ 17/ 21 1032.2R  1 7/8  7/ 8
ISLE OF SHOALS   0200   58      60/ 19/ 21 1032.7S
S OF BLOCK IS    0155      65                N/A           8/ 7
$$

......................KEY.........................
  SKY/WX - SKY CONDITION/PRESENT WEATHER
  TMP    - TEMPERATURE IN FAHRENHEIT
  DWPT   - DEWPOINT IN FAHRENHEIT
  RH     - RELATIVE HUMIDITY IN PERCENT
  WIND   - DIRECTION AND SPEED IN MPH
  PRES   - MEAN SEA LEVEL PRESSURE IN INCHES OF HG
  WCI    - WIND CHILL INDEX
  VSB    - VISIBILITY IN MILES
  HX     - HEAT INDEX
  TC     - TEMPERATURE IN CELSIUS
  VRB    - VARIABLE WIND DIRECTION
  N/A    - NOT AVAILABLE




USA.gov is the U.S. government's official web portal to all federal, state and local government web resources and services.